Newport, VT

12:51 PM EDT on May 20, 2018 (GMT -0400)
Newport State

Weather History for KEFK - September, 2013

Change the Weather History Date:

Sunday, September 8, 2013

  Actual Average Record
Temperature  
Mean Temperature 50 °F -  
Max Temperature 59 °F 71 °F 92 °F (1945)
Min Temperature 40 °F 47 °F 31 °F (1952)
Degree Days  
Heating Degree Days 16    
Moisture  
Dew Point 43 °F    
Average Humidity 72    
Maximum Humidity 91    
Minimum Humidity 44    
Precipitation  
Precipitation 0.00 in - - ()
Sea Level Pressure  
Sea Level Pressure 29.92 in    
Wind  
Wind Speed 6 mph (WNW)    
Max Wind Speed 15 mph    
Max Gust Speed 24 mph    
Visibility 9 miles    
Events Rain    
Averages and records for this station are not official NWS values.
T = Trace of Precipitation, MM = Missing Value Source: NWS Daily Summary

Daily Weather History Graph

Daily Weather History Graph

Search for Another Location

Airport or City:

Astronomy

Sep. 08, 2013 Rise Set
Actual Time 6:19 AM EDT 7:12 PM EDT
Civil Twilight 5:49 AM EDT 7:42 PM EDT
Nautical Twilight 5:14 AM EDT 8:17 PM EDT
Astronomical Twilight 4:37 AM EDT 8:54 PM EDT
Moon 9:44 AM EDT (9/8) 8:34 PM EDT (9/8)
Length of Visible Light 13h 52m
Length of Day
12h 52m
Waxing Crescent, 11% of the Moon is Illuminated
Sep 8
Waxing Crescent
Sep 12
First Quarter
Sep 19
Full
Sep 26
Last Quarter
Oct 4
New

Hourly Weather History & Observations

Time (EDT) Temp. Windchill Dew Point Humidity Pressure Visibility Wind Dir Wind Speed Gust Speed Precip Events Conditions
12:15 AM 59.9 °F - 49.5 °F 68% 29.83 in 10.0 mi WSW 4.6 mph - N/A   Overcast
12:35 AM 59.0 °F - 49.8 °F 72% 29.83 in 10.0 mi Calm Calm - N/A   Overcast
12:55 AM 59.2 °F - 49.8 °F 71% 29.82 in 10.0 mi Calm Calm - N/A   Overcast
1:15 AM 58.6 °F - 49.8 °F 72% 29.82 in 10.0 mi Calm Calm - N/A Rain Light Rain
1:35 AM 58.8 °F - 50.2 °F 73% 29.82 in 10.0 mi Calm Calm - N/A   Overcast
1:55 AM 58.3 °F - 49.6 °F 73% 29.80 in 10.0 mi SSW 6.9 mph - N/A   Overcast
2:15 AM 58.1 °F - 49.6 °F 73% 29.81 in 10.0 mi SW 3.5 mph - N/A   Light Drizzle
2:35 AM 57.6 °F - 50.0 °F 76% 29.80 in 10.0 mi South 3.5 mph - N/A Rain Rain
2:55 AM 57.2 °F - 50.5 °F 78% 29.80 in 10.0 mi South 3.5 mph - N/A   Overcast
3:15 AM 57.2 °F - 50.9 °F 79% 29.79 in 7.0 mi Calm Calm - N/A Rain Rain
3:35 AM 55.6 °F - 51.6 °F 87% 29.79 in 4.0 mi SSW 3.5 mph - N/A Rain Rain
3:55 AM 55.8 °F - 52.0 °F 87% 29.79 in 10.0 mi Calm Calm - N/A Rain Light Rain
4:15 AM 55.6 °F - 52.2 °F 88% 29.78 in 5.0 mi Calm Calm - N/A Rain Rain
4:35 AM 55.6 °F - 52.7 °F 90% 29.77 in 7.0 mi Calm Calm - N/A Rain Rain
4:55 AM 55.4 °F - 52.3 °F 89% 29.77 in 7.0 mi Calm Calm - N/A   Light Drizzle
5:15 AM 55.4 °F - 52.7 °F 91% 29.77 in 5.0 mi North 3.5 mph - N/A Rain Rain
5:35 AM 54.9 °F - 52.3 °F 91% 29.79 in 5.0 mi NW 9.2 mph 18.4 mph N/A Rain Rain
5:55 AM 53.4 °F - 48.7 °F 84% 29.80 in 10.0 mi NNW 10.4 mph 18.4 mph N/A Rain Light Rain
6:15 AM 52.5 °F - 48.0 °F 85% 29.81 in 10.0 mi NW 8.1 mph - N/A Rain Light Rain
6:35 AM 51.3 °F - 46.6 °F 84% 29.83 in 7.0 mi NW 8.1 mph 23.0 mph N/A Rain Rain
6:55 AM 50.9 °F - 47.3 °F 87% 29.84 in 10.0 mi WNW 8.1 mph - N/A Rain Rain
7:15 AM 50.9 °F - 47.3 °F 87% 29.84 in 10.0 mi NW 6.9 mph - N/A   Overcast
7:35 AM 51.1 °F - 47.3 °F 87% 29.84 in 10.0 mi NW 10.4 mph - N/A   Overcast
7:55 AM 51.4 °F - 46.9 °F 85% 29.84 in 10.0 mi NW 6.9 mph - N/A   Overcast
8:15 AM 51.3 °F - 47.5 °F 87% 29.85 in 10.0 mi Calm Calm - N/A   Overcast
8:35 AM 50.9 °F - 45.7 °F 82% 29.86 in 10.0 mi West 11.5 mph 17.3 mph N/A   Overcast
8:55 AM 49.1 °F - 43.7 °F 82% 29.86 in 10.0 mi WNW 11.5 mph 23.0 mph N/A   Scattered Clouds
9:15 AM 50.4 °F - 43.9 °F 78% 29.87 in 10.0 mi WNW 12.7 mph 23.0 mph N/A   Scattered Clouds
9:35 AM 49.5 °F - 43.2 °F 79% 29.89 in 10.0 mi WNW 11.5 mph 24.2 mph N/A   Mostly Cloudy
9:55 AM 48.7 °F - 42.8 °F 80% 29.90 in 10.0 mi WNW 11.5 mph 19.6 mph N/A   Overcast
10:15 AM 48.4 °F - 43.2 °F 82% 29.90 in 10.0 mi NW 9.2 mph 18.4 mph N/A   Overcast
10:35 AM 48.2 °F - 43.9 °F 85% 29.91 in 2.5 mi NW 15.0 mph - N/A Rain Rain
10:55 AM 48.6 °F - 43.3 °F 82% 29.92 in 10.0 mi NNW 11.5 mph 20.7 mph N/A   Overcast
11:15 AM 48.2 °F - 43.0 °F 82% 29.92 in 5.0 mi WNW 10.4 mph 17.3 mph N/A   Haze
11:35 AM 48.7 °F - 43.7 °F 83% 29.93 in 10.0 mi NW 10.4 mph 23.0 mph N/A   Overcast
11:55 AM 49.3 °F - 43.3 °F 80% 29.93 in 7.0 mi WNW 4.6 mph 17.3 mph N/A   Overcast
12:15 PM 50.2 °F - 45.0 °F 82% 29.93 in 10.0 mi WNW 11.5 mph 18.4 mph N/A   Overcast
12:35 PM 52.0 °F - 42.6 °F 70% 29.93 in 10.0 mi WNW 12.7 mph 19.6 mph N/A   Mostly Cloudy
12:55 PM 53.1 °F - 43.3 °F 70% 29.93 in 10.0 mi NW 13.8 mph 20.7 mph N/A   Scattered Clouds
1:15 PM 53.2 °F - 41.0 °F 63% 29.94 in 10.0 mi NW 9.2 mph 17.3 mph N/A   Mostly Cloudy
1:35 PM 52.7 °F - 41.4 °F 65% 29.94 in 10.0 mi NW 8.1 mph - N/A   Overcast
1:55 PM 53.6 °F - 39.7 °F 59% 29.94 in 10.0 mi NW 10.4 mph 17.3 mph N/A   Overcast
2:15 PM 54.7 °F - 39.9 °F 58% 29.94 in 10.0 mi NNW 11.5 mph 19.6 mph N/A   Overcast
2:35 PM 54.5 °F - 39.0 °F 56% 29.94 in 10.0 mi NW 10.4 mph 16.1 mph N/A   Mostly Cloudy
2:55 PM 54.5 °F - 39.0 °F 56% 29.95 in 10.0 mi NW 15.0 mph 20.7 mph N/A   Mostly Cloudy
3:15 PM 55.9 °F - 38.5 °F 52% 29.95 in 10.0 mi NW 10.4 mph 18.4 mph N/A   Scattered Clouds
3:35 PM 57.0 °F - 38.8 °F 51% 29.95 in 10.0 mi NW 12.7 mph 19.6 mph N/A   Scattered Clouds
3:55 PM 56.3 °F - 36.7 °F 48% 29.95 in 10.0 mi NNW 9.2 mph 18.4 mph N/A   Mostly Cloudy
4:15 PM 55.2 °F - 37.0 °F 50% 29.96 in 10.0 mi NNW 12.7 mph 17.3 mph N/A   Mostly Cloudy
4:35 PM 56.1 °F - 37.2 °F 49% 29.96 in 10.0 mi NNW 9.2 mph - N/A   Mostly Cloudy
4:55 PM 57.2 °F - 37.4 °F 48% 29.97 in 10.0 mi NNW 9.2 mph 16.1 mph N/A   Mostly Cloudy
5:15 PM 56.8 °F - 35.4 °F 45% 29.97 in 10.0 mi North 10.4 mph 19.6 mph N/A   Mostly Cloudy
5:35 PM 56.8 °F - 35.2 °F 44% 29.97 in 10.0 mi NW 13.8 mph 21.9 mph N/A   Overcast
5:55 PM 56.3 °F - 35.6 °F 46% 29.98 in 10.0 mi NNW 9.2 mph - N/A   Overcast
6:15 PM 54.9 °F - 34.9 °F 47% 29.99 in 10.0 mi NNW 11.5 mph 18.4 mph N/A   Scattered Clouds
6:35 PM 53.6 °F - 34.7 °F 49% 30.00 in 10.0 mi NNW 12.7 mph - N/A   Clear
6:55 PM 51.6 °F - 35.1 °F 53% 30.01 in 10.0 mi NNW 9.2 mph - N/A   Clear
7:15 PM 50.9 °F - 34.7 °F 54% 30.01 in 10.0 mi NNW 9.2 mph - N/A   Clear
7:35 PM 50.2 °F - 34.3 °F 55% 30.02 in 10.0 mi NNW 6.9 mph - N/A   Clear
7:55 PM 49.8 °F - 34.0 °F 55% 30.03 in 10.0 mi WNW 4.6 mph - N/A   Clear
8:15 PM 47.1 °F - 36.5 °F 67% 30.04 in 10.0 mi West 3.5 mph - N/A   Clear
8:35 PM 45.9 °F - 37.2 °F 72% 30.05 in 10.0 mi Calm Calm - N/A   Clear
8:55 PM 45.0 °F 42.6 °F 37.4 °F 75% 30.06 in 10.0 mi West 4.6 mph - N/A   Clear
9:15 PM 45.5 °F 43.2 °F 36.7 °F 71% 30.06 in 10.0 mi West 4.6 mph - N/A   Clear
9:35 PM 44.4 °F 41.2 °F 36.7 °F 74% 30.06 in 10.0 mi West 5.8 mph - N/A   Clear
9:55 PM 45.9 °F 42.9 °F 35.6 °F 67% 30.07 in 10.0 mi West 5.8 mph - N/A   Clear
10:15 PM 45.5 °F 43.2 °F 35.6 °F 68% 30.08 in 10.0 mi WNW 4.6 mph - N/A   Clear
10:35 PM 43.2 °F 39.7 °F 35.8 °F 75% 30.08 in 10.0 mi West 5.8 mph - N/A   Clear
10:55 PM 42.8 °F 39.3 °F 36.0 °F 77% 30.08 in 10.0 mi West 5.8 mph - N/A   Clear
11:15 PM 41.7 °F 38.0 °F 36.1 °F 81% 30.08 in 10.0 mi West 5.8 mph - N/A   Clear
11:35 PM 40.3 °F 38.2 °F 36.3 °F 86% 30.08 in 10.0 mi South 3.5 mph - N/A   Clear
11:55 PM 40.5 °F - 36.0 °F 84% 30.09 in 10.0 mi Calm Calm - N/A   Clear